Wind_Speed
10 11 12 15 18 23 27 29 31 37 39 39 41 42 43 43 41 39 37 35 33 32 33 34 34 35 36 37 38 38 37 36 33 30 28 26 25 23 21 20 19 19 19 19
5 7 10 12 14 16 19 21 24 30 35 36 38 38 38 38 36 33 31 30 30 30 32 34 35 36 37 38 39 39 38 36 32 29 27 25 22 19 17 16 16 16 17 18
2 6 7 8 9 9 11 13 17 21 25 26 29 27 29 30 29 28 28 28 28 30 32 34 36 38 39 40 40 39 38 35 31 28 26 23 19 17 16 16 17 17 18 19
6 7 8 8 10 10 11 15 16 18 19 18 23 19 22 26 25 27 29 30 31 32 34 36 38 39 39 39 38 37 35 33 31 28 25 23 21 20 19 20 21 21 22 22
9 10 9 9 12 12 14 15 15 16 17 16 18 15 16 23 23 25 28 30 31 32 33 35 37 37 37 36 35 36 36 34 32 29 27 25 24 24 24 25 25 26 26 25
8 8 8 9 10 11 12 12 12 13 13 12 15 11 14 19 19 20 22 23 25 26 29 31 32 34 35 35 36 36 35 34 33 31 30 29 28 29 29 29 29 28 28 27
7 7 8 8 8 11 12 12 11 11 10 11 17 14 18 19 18 19 20 21 23 24 26 29 31 33 35 36 36 36 35 35 35 34 33 32 32 32 32 32 31 30 29 28
6 7 10 10 10 11 11 12 12 12 12 13 17 17 20 19 20 20 21 23 24 26 28 30 33 35 36 37 36 37 37 38 38 38 37 36 35 35 35 34 34 32 31 29
6 7 12 12 10 11 10 11 12 14 14 15 14 20 21 20 22 23 24 26 27 29 30 32 33 35 37 38 39 39 41 42 42 42 41 40 39 39 38 37 36 34 32 31
7 7 9 12 11 10 11 12 13 13 15 15 15 18 23 21 23 25 27 30 32 34 36 37 38 39 40 41 43 44 45 46 46 46 46 44 43 42 41 40 38 36 34 32
7 8 9 12 12 14 14 14 14 16 17 18 18 21 24 25 27 29 32 34 36 38 40 42 43 44 45 46 47 48 49 50 50 51 50 50 49 48 46 44 42 39 37 34
9 10 11 13 15 16 17 17 17 18 20 22 22 27 24 27 30 32 35 37 39 41 43 44 46 48 49 50 52 53 53 55 55 56 56 56 56 54 52 50 47 43 40 37
12 14 15 16 20 20 19 19 20 21 23 25 26 31 30 33 35 37 39 40 42 44 45 47 49 51 53 54 55 57 58 60 61 62 62 62 62 60 58 55 52 49 45 42
15 16 17 16 17 20 22 23 23 24 26 28 30 35 35 37 39 40 42 43 45 46 48 51 53 54 56 58 60 61 63 65 66 67 68 68 68 67 65 63 59 55 52 48
17 17 18 19 20 21 22 23 24 26 28 29 32 35 38 40 42 44 46 48 50 53 55 57 59 61 63 65 67 69 70 71 73 73 74 74 75 74 72 69 66 62 58 53
18 18 19 20 21 23 24 24 26 27 29 32 35 39 42 45 48 50 53 57 60 62 65 67 69 71 73 75 76 77 78 79 80 80 80 80 81 81 78 74 70 67 63 59
19 20 21 22 24 26 26 26 29 31 33 36 41 45 49 52 55 58 62 65 69 72 75 77 80 81 82 82 81 81 81 82 83 84 84 85 85 85 84 81 78 75 71 67
21 22 23 23 25 25 27 29 33 36 38 42 47 50 54 58 62 66 70 75 77 79 80 79 77 73 68 64 61 61 62 63 66 69 72 75 79 80 81 81 80 78 76 72
23 24 24 24 26 31 30 34 37 41 44 48 52 56 60 64 68 72 75 78 77 73 67 61 54 48 44 43 43 43 43 44 45 47 49 52 56 60 64 67 69 71 72 71
25 25 27 28 30 33 37 40 43 47 51 55 59 63 67 72 75 75 73 69 62 55 48 44 41 42 44 44 44 44 43 42 41 41 41 40 41 43 46 49 53 56 59 62
27 28 28 30 33 37 40 44 47 51 56 60 64 69 73 76 76 72 63 55 48 43 42 43 44 45 46 46 47 46 45 43 43 42 40 38 36 35 34 35 37 40 44 48
29 30 32 33 36 41 45 48 51 55 60 65 69 73 75 74 68 60 51 45 43 43 44 45 46 46 47 48 48 46 45 45 45 44 41 38 35 33 31 29 28 29 31 35
30 32 34 36 39 43 48 52 55 60 64 69 72 74 73 68 58 49 44 43 44 45 46 47 48 49 49 49 49 48 47 46 46 44 42 39 36 34 31 28 26 25 26 28
32 34 36 39 42 45 49 54 58 63 68 72 74 73 67 58 50 44 43 44 45 47 48 50 51 51 50 50 50 50 49 48 47 44 42 41 38 34 31 28 27 25 24 23
35 37 40 43 45 48 52 57 62 67 71 74 72 66 59 51 46 44 44 46 48 50 51 52 52 52 52 50 49 48 47 46 45 44 43 41 37 34 32 29 27 26 25 24
36 39 42 45 48 52 56 60 65 69 72 72 67 59 50 47 45 45 46 48 50 52 53 53 54 53 52 50 48 46 46 45 43 41 39 36 36 34 32 30 28 26 25 25
Wind_Direction
276 270 262 256 249 246 245 243 244 248 251 253 255 259 263 266 269 271 271 270 269 267 267 269 273 277 281 284 287 290 291 294 294 291 290 290 286 282 281 280 284 288 292 296
317 290 273 268 261 255 253 251 253 256 256 257 260 263 267 271 273 273 271 269 266 264 265 268 272 276 280 282 285 287 290 292 291 290 291 289 286 283 282 284 287 291 296 301
285 282 291 286 279 272 267 260 260 263 267 270 270 273 276 273 273 272 269 266 264 264 267 269 272 275 278 281 284 287 290 291 291 291 291 289 287 284 285 287 288 292 298 302
292 287 286 288 285 281 283 274 275 277 279 278 278 279 276 278 274 270 267 264 263 263 266 268 270 273 275 278 280 282 286 289 289 290 290 288 286 282 281 283 284 288 292 297
286 284 283 282 278 280 274 281 284 286 287 286 285 283 273 277 273 269 266 265 265 265 265 265 267 270 272 274 277 281 285 286 288 288 287 285 281 279 279 279 280 284 287 292
301 296 291 287 289 288 289 292 298 303 304 296 287 288 270 278 282 279 278 276 274 274 273 270 268 268 268 271 276 280 284 286 287 287 285 282 279 276 276 277 278 280 284 288
326 326 316 310 309 304 302 303 306 306 299 287 293 291 273 288 288 287 286 283 281 279 278 277 274 273 275 277 280 281 283 284 284 284 282 279 277 275 275 275 277 279 283 287
320 310 306 312 310 304 299 295 291 285 279 280 295 290 289 292 292 291 290 287 284 282 280 278 277 277 277 278 280 280 280 280 281 280 279 277 275 274 275 276 278 280 283 287
297 286 302 310 312 309 305 297 290 287 289 288 283 286 290 291 292 291 290 288 286 283 282 280 279 278 278 277 277 277 277 277 277 277 276 275 274 274 275 276 278 281 283 286
312 311 306 315 319 317 309 303 299 294 289 285 285 290 289 292 288 286 285 286 285 284 284 282 280 278 277 276 276 275 275 275 275 275 275 275 275 275 275 276 278 280 282 284
331 330 327 324 326 320 319 316 310 301 296 293 289 281 289 291 287 285 284 284 283 282 281 281 280 279 277 276 275 274 274 275 275 275 275 276 276 276 276 277 277 278 280 282
339 334 328 323 322 321 321 320 316 310 306 303 301 293 299 292 290 289 287 286 284 283 281 280 279 278 277 277 276 275 274 274 274 274 275 275 276 276 276 276 276 277 278 279
337 334 333 331 326 327 325 322 318 314 311 309 306 298 305 300 298 296 294 292 290 287 285 284 282 280 279 277 276 275 274 274 273 273 274 274 274 274 274 274 274 275 275 275
336 332 330 326 317 318 320 320 318 315 312 309 305 301 304 302 301 299 298 296 294 292 290 288 286 284 282 280 278 276 275 274 273 272 272 272 272 272 272 272 271 271 271 271
337 334 332 328 325 322 320 318 315 312 309 307 304 302 304 304 303 302 300 299 297 296 293 291 288 286 283 281 279 276 274 272 271 269 269 269 269 268 268 267 267 267 267 267
342 339 335 331 327 323 321 319 315 313 311 309 308 307 308 307 305 304 303 301 299 297 295 292 289 286 283 280 278 275 273 271 269 267 266 265 265 263 263 263 262 262 262 264
340 337 334 331 326 323 322 320 316 315 314 313 311 309 308 307 307 306 305 302 300 298 296 294 291 289 287 285 283 280 278 275 272 270 268 266 265 264 264 264 262 262 262 263
338 335 333 329 324 322 322 318 315 314 313 311 310 309 309 309 309 308 306 304 302 300 299 298 297 296 295 294 292 289 286 283 280 277 274 271 269 268 266 265 264 263 263 262
338 335 332 329 324 319 321 318 316 315 314 312 312 312 312 311 310 310 308 306 305 304 304 304 304 305 305 304 302 301 299 297 293 289 284 280 277 273 271 268 265 263 261 259
337 335 331 328 324 321 322 320 319 318 317 317 317 316 315 315 313 312 310 309 309 309 309 308 307 306 305 305 303 302 300 299 298 296 293 289 285 281 276 271 266 262 259 255
335 333 331 328 324 322 322 321 321 320 319 318 319 319 318 317 315 315 313 312 312 312 311 309 307 305 304 303 301 300 298 296 296 294 293 291 287 285 280 274 266 260 255 249
333 331 330 328 327 325 324 323 323 321 321 322 322 321 319 318 318 317 316 316 315 313 312 310 308 306 304 302 300 298 296 293 291 290 288 286 284 281 277 273 266 260 251 243
334 332 330 329 328 325 325 325 324 324 324 324 324 323 322 321 321 320 318 317 316 314 312 310 309 308 306 303 300 298 294 291 289 287 283 280 278 275 271 266 261 257 252 243
335 332 330 329 328 328 327 326 326 327 327 327 327 326 324 324 324 322 321 319 318 316 314 312 310 308 307 303 300 298 295 291 287 283 279 275 271 268 264 260 256 254 250 242
335 334 332 330 329 330 330 329 329 330 331 331 330 328 326 326 326 324 323 321 321 319 317 314 312 310 308 305 301 299 296 291 286 281 277 271 264 259 254 252 250 249 244 236
336 334 333 332 331 332 332 332 332 333 334 334 333 331 329 328 328 327 325 323 322 321 320 318 315 312 309 307 304 300 296 292 287 281 275 266 257 250 245 243 242 241 237 233
Height
5869 5871 5872 5872 5873 5874 5876 5878 5880 5879 5879 5882 5882 5882 5881 5881 5882 5882 5881 5881 5880 5879 5878 5876 5875 5873 5870 5868 5865 5863 5860 5858 5856 5853 5851 5849 5847 5845 5844 5842 5841 5839 5838 5836
5869 5870 5869 5869 5870 5871 5872 5874 5875 5874 5873 5875 5875 5876 5875 5874 5874 5874 5874 5874 5874 5873 5872 5870 5868 5866 5863 5860 5858 5855 5853 5851 5848 5846 5845 5842 5840 5839 5837 5836 5835 5833 5832 5830
5870 5869 5867 5868 5868 5869 5869 5870 5870 5869 5868 5869 5869 5870 5868 5867 5867 5867 5867 5867 5867 5866 5865 5863 5860 5857 5855 5852 5849 5847 5846 5844 5841 5839 5837 5836 5834 5833 5831 5830 5829 5827 5826 5824
5868 5867 5866 5867 5867 5866 5867 5865 5865 5864 5865 5866 5864 5865 5864 5860 5860 5860 5859 5859 5859 5858 5857 5854 5851 5848 5846 5843 5841 5839 5838 5836 5834 5832 5830 5829 5828 5826 5825 5824 5822 5821 5819 5817
5867 5865 5864 5864 5863 5862 5862 5861 5861 5860 5860 5860 5859 5860 5860 5853 5853 5852 5851 5850 5850 5849 5847 5844 5841 5839 5837 5835 5833 5831 5830 5828 5827 5825 5823 5822 5821 5820 5819 5818 5816 5814 5812 5810
5864 5863 5862 5861 5860 5859 5859 5858 5858 5857 5857 5857 5855 5855 5854 5848 5847 5846 5844 5843 5842 5841 5839 5836 5832 5830 5827 5826 5825 5823 5822 5820 5819 5817 5816 5815 5813 5812 5811 5810 5809 5807 5805 5802
5865 5863 5861 5860 5859 5859 5857 5857 5858 5858 5858 5856 5851 5850 5847 5844 5842 5841 5840 5838 5836 5835 5833 5830 5827 5823 5822 5820 5818 5816 5814 5812 5811 5809 5808 5807 5805 5804 5803 5802 5801 5799 5797 5794
5865 5865 5861 5858 5857 5856 5855 5855 5855 5855 5855 5853 5849 5846 5842 5839 5838 5836 5835 5833 5831 5829 5827 5824 5821 5818 5815 5813 5810 5808 5806 5804 5802 5801 5800 5799 5797 5796 5795 5793 5792 5790 5788 5786
5864 5863 5859 5857 5855 5854 5852 5851 5851 5850 5848 5847 5846 5841 5837 5835 5833 5831 5829 5826 5824 5822 5819 5817 5814 5811 5808 5805 5802 5800 5797 5795 5793 5791 5790 5789 5788 5786 5785 5783 5782 5780 5778 5776
5861 5860 5859 5855 5853 5852 5851 5849 5847 5846 5844 5844 5843 5840 5836 5831 5828 5825 5822 5819 5816 5813 5810 5807 5804 5801 5798 5795 5792 5789 5787 5784 5782 5780 5778 5777 5776 5775 5774 5772 5771 5770 5768 5766
5859 5858 5857 5854 5852 5850 5848 5846 5843 5842 5840 5838 5837 5837 5830 5826 5822 5818 5814 5811 5807 5804 5800 5796 5792 5789 5786 5783 5780 5777 5774 5771 5769 5766 5764 5763 5762 5761 5760 5759 5759 5758 5757 5756
5858 5856 5854 5852 5850 5847 5844 5842 5839 5837 5834 5831 5829 5829 5824 5818 5814 5810 5806 5802 5797 5793 5789 5784 5780 5776 5772 5768 5765 5762 5759 5756 5753 5751 5749 5747 5746 5745 5745 5745 5745 5744 5744 5744
5856 5854 5852 5850 5847 5843 5840 5837 5834 5831 5828 5825 5822 5820 5815 5809 5805 5800 5795 5791 5786 5781 5776 5771 5767 5762 5757 5753 5749 5745 5742 5739 5736 5733 5731 5729 5728 5727 5727 5728 5728 5729 5730 5730
5853 5851 5849 5848 5844 5840 5836 5832 5829 5826 5822 5819 5815 5808 5804 5799 5794 5789 5783 5778 5772 5767 5761 5756 5750 5745 5740 5735 5731 5727 5723 5719 5716 5713 5711 5709 5708 5707 5708 5709 5710 5712 5714 5715
5851 5848 5845 5842 5839 5835 5831 5827 5824 5820 5816 5812 5807 5800 5794 5788 5782 5777 5770 5764 5758 5751 5745 5738 5732 5726 5721 5715 5710 5705 5701 5697 5694 5691 5689 5687 5686 5686 5687 5688 5690 5693 5695 5698
5848 5845 5842 5838 5834 5830 5826 5822 5818 5813 5809 5804 5798 5791 5785 5778 5771 5764 5757 5749 5741 5733 5726 5718 5710 5703 5697 5690 5685 5680 5675 5671 5668 5666 5664 5663 5662 5662 5663 5665 5668 5671 5675 5680
5845 5841 5838 5834 5829 5825 5821 5817 5811 5806 5802 5796 5789 5782 5774 5766 5757 5749 5740 5731 5721 5712 5703 5693 5684 5676 5668 5661 5655 5650 5646 5642 5639 5637 5636 5634 5634 5635 5637 5639 5643 5647 5653 5658
5841 5837 5834 5830 5826 5821 5819 5811 5805 5799 5794 5786 5778 5770 5761 5752 5742 5732 5720 5708 5698 5687 5676 5666 5656 5648 5640 5633 5627 5622 5618 5614 5610 5608 5607 5606 5605 5607 5609 5612 5616 5621 5627 5635
5837 5833 5829 5825 5820 5814 5812 5805 5797 5790 5783 5775 5766 5756 5746 5736 5725 5714 5699 5685 5673 5662 5652 5643 5635 5628 5622 5616 5611 5606 5601 5596 5592 5589 5586 5584 5582 5582 5584 5586 5589 5595 5602 5610
5833 5829 5825 5819 5815 5809 5803 5795 5787 5780 5770 5760 5750 5740 5728 5716 5704 5695 5679 5665 5653 5643 5635 5628 5622 5616 5610 5604 5598 5593 5588 5583 5579 5575 5571 5569 5566 5565 5564 5564 5567 5571 5577 5585
5829 5825 5821 5815 5809 5801 5795 5786 5778 5770 5761 5749 5737 5724 5711 5697 5683 5670 5658 5647 5638 5630 5623 5617 5610 5603 5597 5591 5585 5579 5575 5570 5566 5562 5559 5556 5554 5552 5550 5549 5550 5552 5556 5563
5825 5820 5814 5809 5802 5795 5784 5775 5767 5758 5746 5734 5721 5708 5693 5679 5665 5652 5641 5632 5625 5619 5612 5604 5597 5590 5583 5576 5570 5564 5559 5555 5551 5548 5545 5544 5542 5541 5540 5539 5540 5541 5543 5547
5820 5815 5808 5802 5796 5786 5775 5765 5756 5745 5733 5720 5706 5691 5675 5661 5649 5639 5630 5622 5615 5607 5599 5591 5583 5576 5569 5561 5554 5548 5543 5538 5535 5532 5531 5530 5529 5529 5529 5529 5531 5532 5533 5536
5815 5808 5802 5794 5786 5778 5768 5757 5746 5734 5720 5705 5689 5673 5658 5646 5636 5628 5620 5612 5603 5595 5585 5577 5568 5560 5552 5544 5536 5530 5525 5520 5517 5515 5514 5514 5514 5516 5517 5519 5521 5523 5526 5529
5808 5801 5794 5786 5778 5769 5759 5747 5734 5722 5707 5691 5675 5658 5644 5634 5626 5617 5609 5601 5591 5582 5572 5562 5552 5543 5535 5527 5519 5512 5506 5501 5498 5496 5495 5496 5498 5502 5505 5509 5512 5515 5519 5522
5802 5795 5787 5779 5769 5759 5749 5737 5724 5710 5695 5679 5663 5648 5636 5625 5617 5608 5599 5589 5579 5569 5558 5547 5537 5527 5517 5509 5501 5494 5488 5482 5479 5477 5477 5479 5483 5488 5493 5498 5503 5507 5512 5516